Regional Weather Roundup
Issued by NWS Upton, NY

Current Version | Previous Version | Text Only | Print | Product List | Glossary Off
Versions: 1 2 3 4 5 6 7 8 9 10 11 12 13 14 15 16 17 18 19 20 21 22 23 24 25 26 27 28 29 30 31 32 33 34 35 36 37 38 39 40 41 42 43 44 45 46 47 48 49 50
914 ASUS41 KOKX 210508 RWROKX REGIONAL WEATHER ROUNDUP NATIONAL WEATHER SERVICE NEW YORK NY 100 AM EDT THU SEP 21 2017 NOTE: "FAIR" INDICATES FEW OR NO CLOUDS BELOW 12,000 FEET WITH NO SIGNIFICANT WEATHER AND/OR OBSTRUCTIONS TO VISIBILITY. NYZ071-072-176-178-NJZ106-104-210600- NEW YORK CITY METRO AREA CITY SKY/WX TMP DP RH WIND PRES REMARKS Central Park CLOUDY 73 63 70 CALM 29.97S Bronx Bot Gard N/A 72 61 68 NW6 29.96R LaGuardia APRT CLOUDY 74 64 71 NW10 29.93R Kennedy INTL MOCLDY 75 64 68 N12 29.94S Breezy Point N/A 73 N/A N/A N10G16 N/A Newark/Liberty MOCLDY 74 62 66 N12 29.94S Teterboro MOCLDY 73 63 70 N8 29.94R $$ NYZ177-179-078>081-210600- LONG ISLAND NEW YORK CITY SKY/WX TMP DP RH WIND PRES REMARKS Jones Beach N/A 72 N/A N/A NW10 N/A Matinecock PT N/A 72 N/A N/A NW14 N/A Farmingdale CLOUDY 72 64 76 N7 29.92R MacArthur/ISP CLOUDY 72 65 78 N10 29.89S Shirley CLOUDY 75 66 73 N12 29.89S Mt Sinai Harb N/A 72 N/A N/A NW8 N/A Westhampton CLOUDY 72 64 76 N12 29.88S East Hampton CLOUDY 72 65 79 N10G16 29.86R Montauk N/A 71 67 87 N12 29.85S $$ NYZ052-065-067-210600- HUDSON VALLEY CITY SKY/WX TMP DP RH WIND PRES REMARKS White Plains CLOUDY 70 63 78 NW9 29.94S Larchmont Harb N/A 72 N/A N/A NW12 N/A Croton On Huds N/A 72 N/A N/A N5G10 N/A Newburgh MOCLDY 70 66 88 VRB6 29.99R Montgomery CLOUDY 66 63 90 CALM 29.97F Poughkeepsie CLOUDY 69 63 81 CALM 29.96R Albany MOCLDY 67 62 84 NW3 30.01R $$ NJZ001-105-106-008-010-013-015-019>022-104-210600- NEW JERSEY CITY SKY/WX TMP DP RH WIND PRES REMARKS Newark/Liberty MOCLDY 74 62 66 N12 29.94S Teterboro MOCLDY 73 63 70 N8 29.94R Caldwell CLOUDY 72 65 78 CALM 29.97R Somerville NOT AVBL Linden FAIR 73 62 67 CALM 29.95S Perth Amboy N/A 73 N/A N/A N9 N/A Sussex MOCLDY 65 65 100 CALM 29.98F Andover N/A 63 63 100 CALM 29.99F Trenton CLEAR 69 66 90 NW5 29.96S Millville CLEAR 67 66 97 W5 29.96S Atlantic City PTCLDY 69 65 86 NW5 29.95R Wrightstown CLEAR 68 63 86 NW8 29.93S Toms River CLEAR 69 64 84 NW6 29.95S Belmar CLOUDY 68 64 87 NW7 29.96R $$ PAZ047>061-062-071-210600- EASTERN PENNSYLVANIA CITY SKY/WX TMP DP RH WIND PRES REMARKS Philadelphia PTCLDY 73 64 73 N3 29.97R Allentown CLEAR 66 61 84 W5 29.99S Scranton PTCLDY 65 61 87 E5 30.03S $$ CTZ002-004>006-009-010-012-RIZ004-006-007-MAZ004-011-015-210600- SOUTHERN NEW ENGLAND IN CT CITY SKY/WX TMP DP RH WIND PRES REMARKS Bradley INTL CLOUDY 72 63 73 N10 29.93S Hartford CLOUDY 73 64 73 N9 29.91S Danbury CLOUDY 73 63 70 N8 29.96R Wtrbury/Oxford CLOUDY 70 63 78 N15 29.95S Norwalk Harbor N/A 72 N/A N/A NW13G18 N/A Bridgeport CLOUDY 72 63 73 NW5 29.91S Meriden MOCLDY 73 63 70 N10G20 29.90F New Haven CLOUDY 74 63 68 N10 29.89S Chester CLOUDY 72 64 78 N12G20 29.89S Groton CLOUDY 73 65 75 N16 29.84S Wilimantic CLOUDY 74 65 73 N15G22 29.89S IN RI CITY SKY/WX TMP DP RH WIND PRES REMARKS Providence CLOUDY 72 67 84 N16G24 29.86S Block Island CLOUDY 72 65 78 N20G32 29.81S Westerly CLOUDY 74 66 76 N14G23 29.84S IN MA CITY SKY/WX TMP DP RH WIND PRES REMARKS Boston NOT AVBL Worcester MOCLDY 67 61 81 N13G26 29.94S Westfield PTCLDY 70 64 81 N9 29.94F Provincetown CLOUDY 64 62 93 N20G26 29.82S Nantucket RAIN 66 66 100 N33G47 29.67S FOG $$ ANZ330-335-338-340-345-350-353-355-210600- COASTAL MARINE OBSERVATIONS STATION/POSITION TIME SKY/WX TEMP WIND PRES VSBY WAVE AIR SEA DIR/SP/G HT/PER (UTC) (F) (DEG/KT/KT) (MB) (MI) (FT/S) NY HARB ENTRANCE 0350 74 70 340/ 14/ 16 1012.3 5/10 20 S FIRE ISLAND 0350 70 68 340/ 12/ 12 1012.0 6/ 9 GREAT SOUTH BAY 0430 73 71 340/ 12/ 16 N/A 23 SSW MONTAUK P 0350 70 66 1009.9 6/ 9 15 E BARNEGAT LI 0430 69 N/A 6/10 HUDSON CANYON 0350 71 69 350/ 19/ 21 1010.0 10/10 KINGS POINT 0430 73 71 10/ 11/ 13 1014.3 EXECUTION ROCKS 0430 73 340/ 10/ 14 N/A WESTERN LI SOUND NOT AVBL CENTRAL LI SOUND 0415 73 360/ 14/ 17 N/A 1 EASTERN LI SOUND NOT AVBL ROBBINS REEF 0430 75 340/ 12/ 15 1014.4 $$ >>>>>>>>>>>>>>>>>>>>>>>>>>>> KEY <<<<<<<<<<<<<<<<<<<<<<<<<<< > < > SKY/WX - Sky Condition/Present Weather < > TMP - Temperature in Fahrenheit < > DP - Dew Point in Fahrenheit < > RH - Relative Humidity in Percent < > WIND - Direction (from) and Speed in MPH < > PRES - Mean Sea Level Pressure (inches of Hg) < > WCI - Wind Chill Index < > VSB - VISIBILITY IN MILES < > HX - HEAT INDEX < > TC - TEMPERATURE IN CELSIUS < > VRB - VARIABLE WIND DIRECTION < > < >>>>>>>>>>>>>>>>>>>>>>>>>>>> KEY <<<<<<<<<<<<<<<<<<<<<<<<<<<

USA.gov is the U.S. government's official web portal to all federal, state and local government web resources and services.